Time,TemperatureF,DewpointF,PressureIn,WindDirection,WindDirectionDegrees,WindSpeedMPH,WindSpeedGustMPH,Humidity,HourlyPrecipIn,Conditions,Clouds,dailyrainin,SoftwareType,DateUTC
2013-01-20 00:00:00,39.1,28.0,29.96,ESE,104,3.0,4.0,64,0.00,,,0.00,weatherlink.com 1.10,2013-01-20 05:00:00,
2013-01-20 00:15:00,38.6,28.0,29.94,ESE,115,1.0,3.0,65,0.00,,,0.00,weatherlink.com 1.10,2013-01-20 05:15:00,
2013-01-20 00:30:00,38.0,27.0,29.93,ESE,102,0.0,4.0,66,0.00,,,0.00,weatherlink.com 1.10,2013-01-20 05:30:00,
2013-01-20 00:45:00,37.4,28.0,29.92,ENE,65,1.0,1.0,68,0.00,,,0.00,weatherlink.com 1.10,2013-01-20 05:45:00,
2013-01-20 01:00:00,37.1,28.0,29.90,East,95,2.0,3.0,69,0.00,,,0.00,weatherlink.com 1.10,2013-01-20 06:00:00,
2013-01-20 01:15:00,37.1,28.0,29.90,ENE,76,1.0,2.0,69,0.00,,,0.00,weatherlink.com 1.10,2013-01-20 06:15:00,
2013-01-20 01:30:00,37.3,28.0,29.90,East,85,1.0,4.0,69,0.00,,,0.00,weatherlink.com 1.10,2013-01-20 06:30:00,
2013-01-20 01:45:00,37.6,28.0,29.89,ENE,65,1.0,3.0,69,0.00,,,0.00,weatherlink.com 1.10,2013-01-20 06:45:00,
2013-01-20 02:00:00,37.4,28.0,29.89,ENE,66,1.0,3.0,69,0.00,,,0.00,weatherlink.com 1.10,2013-01-20 07:00:00,
2013-01-20 02:15:00,37.2,28.0,29.89,ESE,115,1.0,2.0,70,0.00,,,0.00,weatherlink.com 1.10,2013-01-20 07:15:00,
2013-01-20 02:30:00,37.4,28.0,29.88,ESE,120,1.0,3.0,70,0.00,,,0.00,weatherlink.com 1.10,2013-01-20 07:30:00,
2013-01-20 02:45:00,37.3,28.0,29.88,ESE,117,1.0,3.0,70,0.00,,,0.00,weatherlink.com 1.10,2013-01-20 07:45:00,
2013-01-20 03:00:00,37.3,28.0,29.87,ENE,78,1.0,4.0,70,0.00,,,0.00,weatherlink.com 1.10,2013-01-20 08:00:00,
2013-01-20 03:16:00,37.1,28.0,29.87,ESE,103,1.0,4.0,70,0.00,,,0.00,weatherlink.com 1.10,2013-01-20 08:16:00,
2013-01-20 03:31:00,36.8,28.0,29.86,East,98,0.0,4.0,71,0.00,,,0.00,weatherlink.com 1.10,2013-01-20 08:31:00,
2013-01-20 03:46:00,36.3,28.0,29.85,ENE,72,0.0,7.0,72,0.00,,,0.00,weatherlink.com 1.10,2013-01-20 08:46:00,
2013-01-20 04:01:00,36.2,28.0,29.85,ESE,103,0.0,3.0,73,0.00,,,0.00,weatherlink.com 1.10,2013-01-20 09:01:00,
2013-01-20 04:16:00,36.2,28.0,29.83,ESE,102,1.0,4.0,73,0.00,,,0.00,weatherlink.com 1.10,2013-01-20 09:16:00,
2013-01-20 04:31:00,35.8,28.0,29.82,ENE,65,1.0,3.0,74,0.00,,,0.00,weatherlink.com 1.10,2013-01-20 09:31:00,
2013-01-20 04:46:00,36.0,28.0,29.81,SE,131,2.0,3.0,73,0.00,,,0.00,weatherlink.com 1.10,2013-01-20 09:46:00,
2013-01-20 05:01:00,36.7,28.0,29.81,ENE,65,1.0,5.0,72,0.00,,,0.00,weatherlink.com 1.10,2013-01-20 10:01:00,
2013-01-20 05:16:00,37.0,28.0,29.80,SE,124,2.0,11.0,71,0.00,,,0.00,weatherlink.com 1.10,2013-01-20 10:16:00,
2013-01-20 05:31:00,37.2,28.0,29.79,ESE,107,2.0,4.0,70,0.00,,,0.00,weatherlink.com 1.10,2013-01-20 10:31:00,
2013-01-20 05:46:00,37.2,28.0,29.79,NE,48,1.0,4.0,70,0.00,,,0.00,weatherlink.com 1.10,2013-01-20 10:46:00,
2013-01-20 06:01:00,37.4,28.0,29.79,ENE,68,1.0,5.0,69,0.00,,,0.00,weatherlink.com 1.10,2013-01-20 11:01:00,
2013-01-20 06:16:00,37.4,28.0,29.78,SE,129,1.0,6.0,69,0.00,,,0.00,weatherlink.com 1.10,2013-01-20 11:16:00,
2013-01-20 06:31:00,37.1,28.0,29.78,ESE,116,1.0,3.0,69,0.00,,,0.00,weatherlink.com 1.10,2013-01-20 11:31:00,
2013-01-20 06:46:00,37.1,28.0,29.77,South,187,4.0,6.0,70,0.00,,,0.00,weatherlink.com 1.10,2013-01-20 11:46:00,
2013-01-20 07:01:00,37.1,28.0,29.77,East,90,1.0,4.0,70,0.00,,,0.00,weatherlink.com 1.10,2013-01-20 12:01:00,
2013-01-20 07:17:00,37.5,28.0,29.77,ESE,122,2.0,6.0,69,0.00,,,0.00,weatherlink.com 1.10,2013-01-20 12:17:00,
2013-01-20 07:31:00,37.6,28.0,29.77,ENE,74,2.0,4.0,68,0.00,,,0.00,weatherlink.com 1.10,2013-01-20 12:31:00,
2013-01-20 07:46:00,37.8,28.0,29.77,SSE,165,1.0,5.0,68,0.00,,,0.00,weatherlink.com 1.10,2013-01-20 12:46:00,
2013-01-20 08:01:00,38.1,28.0,29.77,SSW,200,3.0,5.0,67,0.00,,,0.00,weatherlink.com 1.10,2013-01-20 13:01:00,
2013-01-20 08:16:00,38.5,28.0,29.77,ESE,102,2.0,4.0,67,0.00,,,0.00,weatherlink.com 1.10,2013-01-20 13:16:00,
2013-01-20 08:31:00,39.2,28.0,29.78,South,176,2.0,6.0,65,0.00,,,0.00,weatherlink.com 1.10,2013-01-20 13:31:00,
2013-01-20 08:46:00,39.8,28.0,29.78,SE,136,1.0,6.0,64,0.00,,,0.00,weatherlink.com 1.10,2013-01-20 13:46:00,
2013-01-20 09:01:00,40.7,29.0,29.79,ESE,109,1.0,4.0,63,0.00,,,0.00,weatherlink.com 1.10,2013-01-20 14:01:00,
2013-01-20 09:16:00,41.7,29.0,29.79,ESE,108,1.0,4.0,61,0.00,,,0.00,weatherlink.com 1.10,2013-01-20 14:16:00,
2013-01-20 09:31:00,42.8,29.0,29.79,ESE,117,1.0,4.0,58,0.00,,,0.00,weatherlink.com 1.10,2013-01-20 14:31:00,
2013-01-20 09:46:00,44.7,29.0,29.78,East,96,3.0,7.0,54,0.00,,,0.00,weatherlink.com 1.10,2013-01-20 14:46:00,
2013-01-20 10:01:00,46.8,29.0,29.78,ESE,108,0.0,6.0,50,0.00,,,0.00,weatherlink.com 1.10,2013-01-20 15:01:00,
2013-01-20 10:17:00,48.5,29.0,29.77,SE,129,2.0,6.0,47,0.00,,,0.00,weatherlink.com 1.10,2013-01-20 15:17:00,
2013-01-20 10:32:00,50.0,29.0,29.77,NW,325,2.0,10.0,45,0.00,,,0.00,weatherlink.com 1.10,2013-01-20 15:32:00,
2013-01-20 10:47:00,50.2,30.0,29.77,ESE,105,1.0,7.0,46,0.00,,,0.00,weatherlink.com 1.10,2013-01-20 15:47:00,
2013-01-20 11:02:00,50.0,29.0,29.76,SW,229,3.0,7.0,45,0.00,,,0.00,weatherlink.com 1.10,2013-01-20 16:02:00,
2013-01-20 11:17:00,50.2,29.0,29.75,SW,229,2.0,7.0,45,0.00,,,0.00,weatherlink.com 1.10,2013-01-20 16:17:00,
2013-01-20 11:32:00,50.1,29.0,29.75,ESE,122,2.0,6.0,45,0.00,,,0.00,weatherlink.com 1.10,2013-01-20 16:32:00,
2013-01-20 11:47:00,50.5,30.0,29.74,SW,235,3.0,6.0,46,0.00,,,0.00,weatherlink.com 1.10,2013-01-20 16:47:00,
2013-01-20 12:02:00,52.4,30.0,29.74,East,98,1.0,9.0,43,0.00,,,0.00,weatherlink.com 1.10,2013-01-20 17:02:00,
2013-01-20 12:17:00,52.6,28.0,29.73,SSW,205,3.0,10.0,39,0.00,,,0.00,weatherlink.com 1.10,2013-01-20 17:17:00,
2013-01-20 12:33:00,51.7,28.0,29.73,SSE,166,2.0,11.0,41,0.00,,,0.00,weatherlink.com 1.10,2013-01-20 17:33:00,
2013-01-20 12:47:00,53.2,27.0,29.73,SSE,152,3.0,10.0,36,0.00,,,0.00,weatherlink.com 1.10,2013-01-20 17:47:00,
2013-01-20 13:02:00,53.1,23.0,29.73,SSW,210,5.0,9.0,31,0.00,,,0.00,weatherlink.com 1.10,2013-01-20 18:02:00,
2013-01-20 13:17:00,50.5,21.0,29.73,East,90,2.0,10.0,31,0.00,,,0.00,weatherlink.com 1.10,2013-01-20 18:17:00,
2013-01-20 13:32:00,49.7,21.0,29.73,ESE,122,5.0,9.0,32,0.00,,,0.00,weatherlink.com 1.10,2013-01-20 18:32:00,
2013-01-20 13:47:00,51.4,21.0,29.73,SSE,155,3.0,9.0,30,0.00,,,0.00,weatherlink.com 1.10,2013-01-20 18:47:00,
2013-01-20 14:02:00,52.2,19.0,29.74,South,176,3.0,10.0,27,0.00,,,0.00,weatherlink.com 1.10,2013-01-20 19:02:00,
2013-01-20 14:17:00,52.1,19.0,29.75,SW,234,6.0,10.0,27,0.00,,,0.00,weatherlink.com 1.10,2013-01-20 19:17:00,
2013-01-20 14:32:00,50.3,16.0,29.76,SSW,204,3.0,9.0,26,0.00,,,0.00,weatherlink.com 1.10,2013-01-20 19:32:00,
2013-01-20 14:47:00,49.7,18.0,29.77,SW,226,6.0,8.0,28,0.00,,,0.00,weatherlink.com 1.10,2013-01-20 19:47:00,
2013-01-20 15:02:00,49.2,18.0,29.78,SSE,153,4.0,6.0,29,0.00,,,0.00,weatherlink.com 1.10,2013-01-20 20:02:00,
2013-01-20 15:17:00,49.1,21.0,29.79,SSE,160,5.0,6.0,33,0.00,,,0.00,weatherlink.com 1.10,2013-01-20 20:17:00,
2013-01-20 15:32:00,48.3,20.0,29.79,SSE,160,1.0,8.0,32,0.00,,,0.00,weatherlink.com 1.10,2013-01-20 20:32:00,
2013-01-20 15:47:00,47.7,18.0,29.80,South,172,4.0,9.0,31,0.00,,,0.00,weatherlink.com 1.10,2013-01-20 20:47:00,
2013-01-20 16:02:00,46.8,16.0,29.82,SSE,166,5.0,10.0,29,0.00,,,0.00,weatherlink.com 1.10,2013-01-20 21:02:00,
2013-01-20 16:32:00,44.8,16.0,29.84,South,187,4.0,9.0,31,0.00,,,0.00,weatherlink.com 1.10,2013-01-20 21:32:00,
2013-01-20 16:47:00,43.8,16.0,29.85,SSW,205,5.0,8.0,33,0.00,,,0.00,weatherlink.com 1.10,2013-01-20 21:47:00,
2013-01-20 17:02:00,42.9,15.0,29.86,SW,222,4.0,9.0,32,0.00,,,0.00,weatherlink.com 1.10,2013-01-20 22:02:00,
2013-01-20 17:17:00,41.8,14.0,29.86,SW,215,3.0,9.0,32,0.00,,,0.00,weatherlink.com 1.10,2013-01-20 22:17:00,
2013-01-20 17:32:00,40.8,14.0,29.88,ESE,122,5.0,8.0,34,0.00,,,0.00,weatherlink.com 1.10,2013-01-20 22:32:00,
2013-01-20 17:47:00,40.2,14.0,29.89,ENE,61,5.0,8.0,35,0.00,,,0.00,weatherlink.com 1.10,2013-01-20 22:47:00,
2013-01-20 18:02:00,39.4,15.0,29.91,ESE,111,1.0,6.0,37,0.00,,,0.00,weatherlink.com 1.10,2013-01-20 23:02:00,
2013-01-20 18:17:00,38.7,15.0,29.92,East,101,2.0,7.0,38,0.00,,,0.00,weatherlink.com 1.10,2013-01-20 23:17:00,
2013-01-20 18:32:00,37.9,15.0,29.93,SSE,162,0.0,5.0,39,0.00,,,0.00,weatherlink.com 1.10,2013-01-20 23:32:00,
2013-01-20 18:47:00,37.2,15.0,29.93,SE,124,0.0,4.0,40,0.00,,,0.00,weatherlink.com 1.10,2013-01-20 23:47:00,
2013-01-20 19:02:00,36.5,15.0,29.95,ESE,123,2.0,7.0,41,0.00,,,0.00,weatherlink.com 1.10,2013-01-21 00:02:00,
2013-01-20 19:33:00,35.2,14.0,29.97,East,90,1.0,8.0,41,0.00,,,0.00,weatherlink.com 1.10,2013-01-21 00:33:00,
2013-01-20 19:48:00,34.5,13.0,29.97,ESE,120,3.0,7.0,41,0.00,,,0.00,weatherlink.com 1.10,2013-01-21 00:48:00,
2013-01-20 20:03:00,34.0,13.0,29.98,ESE,120,6.0,7.0,42,0.00,,,0.00,weatherlink.com 1.10,2013-01-21 01:03:00,
2013-01-20 20:18:00,33.5,11.0,29.98,ESE,115,3.0,10.0,40,0.00,,,0.00,weatherlink.com 1.10,2013-01-21 01:18:00,
2013-01-20 20:33:00,32.9,11.0,30.00,ESE,122,4.0,7.0,41,0.00,,,0.00,weatherlink.com 1.10,2013-01-21 01:33:00,
2013-01-20 20:48:00,32.2,12.0,30.00,ESE,122,1.0,4.0,43,0.00,,,0.00,weatherlink.com 1.10,2013-01-21 01:48:00,
2013-01-20 21:03:00,31.8,13.0,30.00,SE,134,2.0,6.0,45,0.00,,,0.00,weatherlink.com 1.10,2013-01-21 02:03:00,
2013-01-20 21:18:00,31.1,12.0,30.01,ESE,119,2.0,3.0,46,0.00,,,0.00,weatherlink.com 1.10,2013-01-21 02:18:00,
2013-01-20 21:33:00,30.9,12.0,30.01,SE,125,1.0,5.0,46,0.00,,,0.00,weatherlink.com 1.10,2013-01-21 02:33:00,
2013-01-20 21:48:00,30.5,12.0,30.01,ESE,119,1.0,4.0,47,0.00,,,0.00,weatherlink.com 1.10,2013-01-21 02:48:00,
2013-01-20 22:03:00,30.1,13.0,30.02,ESE,121,2.0,4.0,49,0.00,,,0.00,weatherlink.com 1.10,2013-01-21 03:03:00,
2013-01-20 22:18:00,29.8,12.0,30.03,ESE,120,2.0,5.0,47,0.00,,,0.00,weatherlink.com 1.10,2013-01-21 03:18:00,
2013-01-20 22:33:00,29.3,12.0,30.03,ESE,121,1.0,2.0,48,0.00,,,0.00,weatherlink.com 1.10,2013-01-21 03:33:00,
2013-01-20 22:48:00,28.8,12.0,30.04,ESE,110,1.0,3.0,50,0.00,,,0.00,weatherlink.com 1.10,2013-01-21 03:48:00,
2013-01-20 23:03:00,28.1,12.0,30.04,South,172,0.0,3.0,51,0.00,,,0.00,weatherlink.com 1.10,2013-01-21 04:03:00,
2013-01-20 23:18:00,27.5,12.0,30.05,SE,134,0.0,4.0,52,0.00,,,0.00,weatherlink.com 1.10,2013-01-21 04:18:00,
2013-01-20 23:33:00,27.2,12.0,30.06,ESE,120,0.0,2.0,52,0.00,,,0.00,weatherlink.com 1.10,2013-01-21 04:33:00,
2013-01-20 23:48:00,26.8,11.0,30.06,ESE,110,1.0,1.0,52,0.00,,,0.00,weatherlink.com 1.10,2013-01-21 04:48:00,